Location: Pl�tzky
(52.0521°N, 11.8020°E)
Time: 21:23:45
(UTC+00:00)

USA 229 - Pass Details

Date: 01 March 2020
Orbit: 986 x 1226 km, 63.4° (Epoch: 26 March)

Event Time Altitude Azimuth Distance (km) Brightness Sun altitude
Rises 22:30:20 0° 312° (NW) 3,903 7.3 -43.7°
Reaches altitude 10° 22:32:58 10° 315° (NW) 2,978 6.5 -43.8°
Enters shadow 22:36:07 29° 322° (NW) 1,944 5.3 -44.0°
